Location: Bethel Church
(38.0159°N, 88.7292°W)
Time: 01:48:43
(UTC+00:00)

COSMOS 2455 - Pass Details

Date: 08 December 2021
Orbit: 898 x 911 km, 67.1° (Epoch: 21 January)

Event Time Altitude Azimuth Distance (km) Brightness Sun altitude
Rises 22:57:08 0° 222° (SW) 3,512 7.4 -4.7°
Reaches altitude 10° 22:59:42 10° 228° (SW) 2,576 6.7 -5.1°
Maximum altitude 23:05:29 50° 302° (WNW) 1,148 3.7 -6.2°
Drops below altitude 10° 23:11:20 10° 17° (NNE) 2,598 4.9 -7.2°
Sets 23:13:57 0° 23° (NNE) 3,545 5.5 -7.7°
